| time (UTC) | temp F | wind direction | speed knots | gust knots | rain 1hr in | rain 24hr in | rain mn in | humidity % | barometer mb |
| 20260505194500 | 80 | 172 | 17.4 | 26.9 | 0.00 | 0.00 | 0.00 | 46 | 1010.7 |
| 20260505194004 | 80 | 168 | 18.2 | 26.9 | 0.00 | 0.00 | 0.00 | 45 | 1010.7 |
| 20260505193000 | 79 | 176 | 17.4 | 24.3 | 0.00 | 0.00 | 0.00 | 48 | 1010.8 |
| 20260505192004 | 80 | 170 | 17.4 | 20.9 | 0.00 | 0.00 | 0.00 | 48 | 1011.0 |
| 20260505185505 | 79 | 166 | 16.5 | 21.7 | 0.00 | 0.00 | 0.00 | 47 | 1011.3 |
| 20260505185005 | 79 | 163 | 16.5 | 21.7 | 0.00 | 0.00 | 0.00 | 48 | 1011.4 |
| 20260505184004 | 79 | 157 | 16.5 | 25.2 | 0.00 | 0.00 | 0.00 | 47 | 1011.5 |
| 20260505183504 | 79 | 175 | 14.8 | 20.0 | 0.00 | 0.00 | 0.00 | 49 | 1011.6 |
| 20260505183005 | 79 | 152 | 13.9 | 20.9 | 0.00 | 0.00 | 0.00 | 48 | 1011.6 |
| 20260505182505 | 79 | 162 | 14.8 | 20.0 | 0.00 | 0.00 | 0.00 | 49 | 1011.6 |
| 20260505182005 | 79 | 166 | 15.6 | 20.9 | 0.00 | 0.00 | 0.00 | 49 | 1011.7 |
| 20260505181505 | 78 | 170 | 16.5 | 20.0 | 0.00 | 0.00 | 0.00 | 52 | 1011.8 |
| 20260505180005 | 79 | 148 | 14.8 | 18.2 | 0.00 | 0.00 | 0.00 | 49 | 1011.9 |
| 20260505175500 | 79 | 161 | 13.9 | 17.4 | 0.00 | 0.00 | 0.00 | 49 | 1011.9 |
| 20260505175000 | 79 | 166 | 13.0 | 17.4 | 0.00 | 0.00 | 0.00 | 49 | 1011.9 |
| 20260505174504 | 79 | 170 | 14.8 | 17.4 | 0.00 | 0.00 | 0.00 | 48 | 1011.9 |
| 20260505174000 | 79 | 172 | 11.3 | 19.1 | 0.00 | 0.00 | 0.00 | 48 | 1011.9 |
| 20260505173502 | 78 | 162 | 10.4 | 17.4 | 0.00 | 0.00 | 0.00 | 50 | 1011.9 |
| 20260505172459 | 77 | 181 | 13.0 | 14.8 | 0.00 | 0.00 | 0.00 | 53 | 1012.0 |
| 20260505172003 | 77 | 191 | 11.3 | 14.8 | 0.00 | 0.00 | 0.00 | 55 | 1012.1 |
| 20260505171505 | 77 | 186 | 10.4 | 12.2 | 0.00 | 0.00 | 0.00 | 55 | 1012.2 |
| 20260505170500 | 76 | 182 | 10.4 | 13.9 | 0.00 | 0.00 | 0.00 | 55 | 1012.4 |
| 20260505170001 | 76 | 186 | 11.3 | 13.9 | 0.00 | 0.00 | 0.00 | 59 | 1012.4 |
| 20260505165500 | 76 | 190 | 10.4 | 13.9 | 0.00 | 0.00 | 0.00 | 57 | 1012.5 |
| 20260505165004 | 76 | 191 | 10.4 | 13.9 | 0.00 | 0.00 | 0.00 | 58 | 1012.5 |
| 20260505163005 | 75 | 186 | 11.3 | 15.6 | 0.00 | 0.00 | 0.00 | 56 | 1012.5 |
| 20260505162004 | 74 | 186 | 10.4 | 12.2 | 0.00 | 0.00 | 0.00 | 59 | 1012.7 |
| 20260505161501 | 74 | 192 | 10.4 | 13.0 | 0.00 | 0.00 | 0.00 | 59 | 1012.8 |
| 20260505160500 | 74 | 187 | 10.4 | 12.2 | 0.00 | 0.00 | 0.00 | 59 | 1012.8 |
| 20260505153002 | 72 | 190 | 9.6 | 12.2 | 0.00 | 0.00 | 0.00 | 62 | 1013.0 |
| 20260505152505 | 72 | 194 | 10.4 | 12.2 | 0.00 | 0.00 | 0.00 | 63 | 1013.0 |
| 20260505152005 | 72 | 196 | 8.7 | 12.2 | 0.00 | 0.00 | 0.00 | 63 | 1013.0 |
| 20260505151505 | 71 | 192 | 9.6 | 12.2 | 0.00 | 0.00 | 0.00 | 62 | 1013.1 |
| 20260505150504 | 71 | 190 | 9.6 | 13.9 | 0.00 | 0.00 | 0.00 | 63 | 1012.9 |
| 20260505140504 | 70 | 205 | 10.4 | 12.2 | 0.00 | 0.00 | 0.00 | 64 | 1012.7 |
| 20260505124500 | 66 | 198 | 10.4 | 13.0 | 0.00 | 0.00 | 0.00 | 68 | 1012.9 |
| 20260505124000 | 65 | 194 | 10.4 | 13.0 | 0.00 | 0.00 | 0.00 | 69 | 1012.9 |
| 20260505123000 | 66 | 194 | 8.7 | 10.4 | 0.00 | 0.00 | 0.00 | 69 | 1012.8 |
| 20260505122459 | 66 | 212 | 7.8 | 13.0 | 0.00 | 0.00 | 0.00 | 68 | 1012.7 |
| 20260505122002 | 65 | 215 | 9.6 | 13.0 | 0.00 | 0.00 | 0.00 | 69 | 1012.7 |
| 20260505121000 | 65 | 203 | 8.7 | 13.0 | 0.00 | 0.00 | 0.00 | 69 | 1012.6 |
| 20260505120500 | 65 | 208 | 9.6 | 15.6 | 0.00 | 0.00 | 0.00 | 68 | 1012.6 |
| 20260505115959 | 65 | 213 | 8.7 | 13.0 | 0.00 | 0.00 | 0.00 | 68 | 1012.6 |
| 20260505115459 | 65 | 203 | 9.6 | 12.2 | 0.00 | 0.00 | 0.00 | 70 | 1012.6 |
| 20260505115000 | 64 | 213 | 9.6 | 13.0 | 0.00 | 0.00 | 0.00 | 70 | 1012.5 |
| 20260505114458 | 64 | 201 | 8.7 | 13.0 | 0.00 | 0.00 | 0.00 | 70 | 1012.5 |
| 20260505113459 | 64 | 192 | 10.4 | 15.6 | 0.00 | 0.00 | 0.00 | 71 | 1012.3 |
| 20260505112959 | 64 | 201 | 10.4 | 15.6 | 0.00 | 0.00 | 0.00 | 71 | 1012.2 |
| 20260505112459 | 64 | 205 | 11.3 | 14.8 | 0.00 | 0.00 | 0.00 | 72 | 1012.1 |
| 20260505111959 | 63 | 193 | 10.4 | 15.6 | 0.00 | 0.00 | 0.00 | 72 | 1012.1 |
| 20260505111459 | 63 | 202 | 11.3 | 16.5 | 0.00 | 0.00 | 0.00 | 71 | 1012.2 |
| 20260505110459 | 63 | 194 | 12.2 | 16.5 | 0.00 | 0.00 | 0.00 | 72 | 1012.0 |
| 20260505102005 | 62 | 200 | 11.3 | 13.9 | 0.00 | 0.00 | 0.00 | 74 | 1012.0 |
| 20260505101505 | 62 | 200 | 11.3 | 13.9 | 0.00 | 0.00 | 0.00 | 74 | 1011.9 |
| 20260505101000 | 62 | 204 | 10.4 | 14.8 | 0.00 | 0.00 | 0.00 | 74 | 1011.9 |
| 20260505100005 | 63 | 198 | 11.3 | 15.6 | 0.00 | 0.00 | 0.00 | 73 | 1011.9 |
| 20260505095459 | 63 | 205 | 10.4 | 14.8 | 0.00 | 0.00 | 0.00 | 72 | 1011.8 |
| 20260505095000 | 62 | 217 | 9.6 | 14.8 | 0.00 | 0.00 | 0.00 | 72 | 1011.8 |
| 20260505094000 | 63 | 188 | 10.4 | 15.6 | 0.00 | 0.00 | 0.00 | 73 | 1011.8 |
| 20260505093459 | 63 | 211 | 9.6 | 15.6 | 0.00 | 0.00 | 0.00 | 73 | 1011.8 |
| 20260505092504 | 63 | 202 | 11.3 | 13.0 | 0.00 | 0.00 | 0.00 | 73 | 1011.8 |
| 20260505092000 | 63 | 200 | 8.7 | 12.2 | 0.00 | 0.00 | 0.00 | 73 | 1011.8 |
| 20260505091000 | 63 | 205 | 9.6 | 12.2 | 0.00 | 0.00 | 0.00 | 73 | 1011.8 |
| 20260505090500 | 63 | 196 | 9.6 | 13.9 | 0.00 | 0.00 | 0.00 | 72 | 1011.8 |
| 20260505090003 | 63 | 198 | 11.3 | 13.9 | 0.00 | 0.00 | 0.00 | 72 | 1011.6 |
| 20260505085459 | 63 | 198 | 10.4 | 13.0 | 0.00 | 0.00 | 0.00 | 73 | 1011.7 |
| 20260505085000 | 63 | 194 | 9.6 | 12.2 | 0.00 | 0.00 | 0.00 | 72 | 1011.6 |
| 20260505084504 | 63 | 202 | 9.6 | 13.9 | 0.00 | 0.00 | 0.00 | 73 | 1011.6 |
| 20260505083500 | 63 | 197 | 9.6 | 13.0 | 0.00 | 0.00 | 0.00 | 74 | 1011.6 |
| 20260505083005 | 63 | 207 | 10.4 | 13.9 | 0.00 | 0.00 | 0.00 | 74 | 1011.5 |
| 20260505082500 | 63 | 210 | 11.3 | 13.9 | 0.00 | 0.00 | 0.00 | 74 | 1011.6 |
| 20260505082000 | 63 | 200 | 10.4 | 14.8 | 0.00 | 0.00 | 0.00 | 74 | 1011.6 |
| 20260505081000 | 63 | 188 | 11.3 | 14.8 | 0.00 | 0.00 | 0.00 | 73 | 1011.7 |
| 20260505080500 | 63 | 196 | 10.4 | 14.8 | 0.00 | 0.00 | 0.00 | 72 | 1011.6 |
| 20260505080004 | 63 | 192 | 11.3 | 14.8 | 0.00 | 0.00 | 0.00 | 72 | 1011.5 |
| 20260505075459 | 63 | 184 | 11.3 | 14.8 | 0.00 | 0.00 | 0.00 | 72 | 1011.5 |
| 20260505075000 | 63 | 190 | 12.2 | 16.5 | 0.00 | 0.00 | 0.00 | 71 | 1011.5 |
| 20260505074500 | 63 | 182 | 12.2 | 16.5 | 0.00 | 0.00 | 0.00 | 70 | 1011.5 |
| 20260505074004 | 64 | 190 | 12.2 | 16.5 | 0.00 | 0.00 | 0.00 | 71 | 1011.5 |
| 20260505073459 | 64 | 173 | 12.2 | 16.5 | 0.00 | 0.00 | 0.00 | 71 | 1011.4 |
| 20260505072459 | 64 | 189 | 13.0 | 16.5 | 0.00 | 0.00 | 0.00 | 70 | 1011.4 |
| 20260505071500 | 64 | 175 | 12.2 | 16.5 | 0.00 | 0.00 | 0.00 | 70 | 1011.4 |
| 20260505070959 | 64 | 186 | 13.9 | 17.4 | 0.00 | 0.00 | 0.00 | 70 | 1011.4 |
| 20260505070500 | 64 | 185 | 13.0 | 17.4 | 0.00 | 0.00 | 0.00 | 70 | 1011.5 |
| 20260505070005 | 64 | 184 | 13.9 | 18.2 | 0.00 | 0.00 | 0.00 | 70 | 1011.4 |
| 20260505065459 | 64 | 194 | 14.8 | 18.2 | 0.00 | 0.00 | 0.00 | 70 | 1011.4 |
| 20260505065004 | 64 | 189 | 14.8 | 18.2 | 0.00 | 0.00 | 0.00 | 71 | 1011.4 |
| 20260505063959 | 63 | 184 | 13.9 | 17.4 | 0.00 | 0.00 | 0.00 | 72 | 1011.4 |
| 20260505063459 | 63 | 190 | 14.8 | 17.4 | 0.00 | 0.00 | 0.00 | 72 | 1011.4 |
| 20260505063000 | 63 | 183 | 13.9 | 19.1 | 0.00 | 0.00 | 0.00 | 72 | 1011.4 |
| 20260505062459 | 63 | 171 | 15.6 | 20.0 | 0.00 | 0.00 | 0.00 | 71 | 1011.4 |
| 20260505061959 | 64 | 179 | 13.9 | 18.2 | 0.00 | 0.00 | 0.00 | 70 | 1011.4 |
| 20260505061500 | 63 | 173 | 14.8 | 20.0 | 0.00 | 0.00 | 0.00 | 69 | 1011.4 |
| 20260505061004 | 63 | 171 | 14.8 | 18.2 | 0.00 | 0.00 | 0.00 | 69 | 1011.5 |
| 20260505060500 | 64 | 173 | 13.9 | 18.2 | 0.00 | 0.00 | 0.00 | 69 | 1011.5 |
| 20260505055958 | 64 | 170 | 15.6 | 20.0 | 0.00 | 0.00 | 0.00 | 69 | 1011.5 |
| 20260505055458 | 64 | 169 | 16.5 | 20.0 | 0.00 | 0.00 | 0.00 | 68 | 1011.5 |
| 20260505054958 | 64 | 175 | 16.5 | 20.9 | 0.00 | 0.00 | 0.00 | 69 | 1011.4 |
| 20260505054458 | 64 | 169 | 17.4 | 20.9 | 0.00 | 0.00 | 0.00 | 68 | 1011.5 |
| 20260505053958 | 64 | 160 | 16.5 | 19.1 | 0.00 | 0.00 | 0.00 | 68 | 1011.5 |
| 20260505053459 | 64 | 182 | 16.5 | 19.1 | 0.00 | 0.00 | 0.00 | 68 | 1011.4 |
| 20260505052958 | 64 | 180 | 16.5 | 18.2 | 0.00 | 0.00 | 0.00 | 69 | 1011.4 |
| 20260505052458 | 64 | 169 | 15.6 | 19.1 | 0.00 | 0.00 | 0.00 | 69 | 1011.5 |
| 20260505051958 | 64 | 171 | 16.5 | 19.1 | 0.00 | 0.00 | 0.00 | 70 | 1011.4 |
| 20260505051458 | 64 | 190 | 15.6 | 20.0 | 0.00 | 0.00 | 0.00 | 70 | 1011.4 |
| 20260505050959 | 64 | 167 | 15.6 | 17.4 | 0.00 | 0.00 | 0.00 | 71 | 1011.4 |
| 20260505050459 | 64 | 158 | 13.9 | 17.4 | 0.00 | 0.00 | 0.00 | 72 | 1011.4 |
| 20260505041504 | 61 | 117 | 5.2 | 7.8 | 0.00 | 0.00 | 0.00 | 80 | 1011.4 |
| 20260505041004 | 61 | 158 | 5.2 | 7.8 | 0.00 | 0.00 | 0.00 | 79 | 1011.4 |
| 20260505040504 | 61 | 137 | 4.3 | 7.0 | 0.00 | 0.00 | 0.00 | 80 | 1011.3 |
| 20260505040007 | 61 | 133 | 4.3 | 8.7 | 0.00 | 0.00 | 0.00 | 81 | 1011.3 |
| 20260505035505 | 61 | 140 | 4.3 | 7.8 | 0.00 | 0.00 | 0.00 | 81 | 1011.3 |
| 20260505035005 | 61 | 138 | 5.2 | 7.8 | 0.00 | 0.00 | 0.00 | 80 | 1011.2 |
| 20260505034005 | 62 | 151 | 3.5 | 7.8 | 0.00 | 0.00 | 0.00 | 79 | 1011.2 |
| 20260505033505 | 62 | 148 | 4.3 | 7.8 | 0.00 | 0.00 | 0.00 | 78 | 1011.2 |
| 20260505033005 | 62 | 161 | 5.2 | 7.8 | 0.00 | 0.00 | 0.00 | 78 | 1011.1 |
| 20260505032505 | 62 | 138 | 3.5 | 7.8 | 0.00 | 0.00 | 0.00 | 78 | 1011.2 |
| 20260505032004 | 62 | 140 | 4.3 | 7.8 | 0.00 | 0.00 | 0.00 | 77 | 1011.2 |
| 20260505031505 | 62 | 144 | 4.3 | 7.8 | 0.00 | 0.00 | 0.00 | 77 | 1011.2 |
| 20260505031004 | 62 | 148 | 4.3 | 7.8 | 0.00 | 0.00 | 0.00 | 78 | 1011.1 |
| 20260505030505 | 62 | 145 | 5.2 | 7.8 | 0.00 | 0.00 | 0.00 | 78 | 1011.2 |
| 20260505025505 | 62 | 153 | 4.3 | 9.6 | 0.00 | 0.00 | 0.00 | 79 | 1011.3 |
| 20260505025005 | 62 | 134 | 4.3 | 7.8 | 0.00 | 0.00 | 0.00 | 80 | 1011.2 |
| 20260505024505 | 62 | 140 | 4.3 | 7.8 | 0.00 | 0.00 | 0.00 | 80 | 1011.3 |
| 20260505024004 | 62 | 136 | 5.2 | 8.7 | 0.00 | 0.00 | 0.00 | 81 | 1011.3 |
| 20260505023504 | 62 | 117 | 5.2 | 8.7 | 0.00 | 0.00 | 0.00 | 80 | 1011.2 |
| 20260505023005 | 62 | 148 | 6.1 | 8.7 | 0.00 | 0.00 | 0.00 | 80 | 1011.2 |
| 20260505022504 | 62 | 141 | 6.1 | 9.6 | 0.00 | 0.00 | 0.00 | 79 | 1011.2 |
| 20260505022005 | 62 | 127 | 5.2 | 9.6 | 0.00 | 0.00 | 0.00 | 79 | 1011.1 |
| 20260505021504 | 62 | 138 | 6.1 | 9.6 | 0.00 | 0.00 | 0.00 | 79 | 1011.2 |
| 20260505021004 | 62 | 153 | 6.1 | 8.7 | 0.00 | 0.00 | 0.00 | 79 | 1011.1 |
| 20260505020504 | 62 | 161 | 5.2 | 8.7 | 0.00 | 0.00 | 0.00 | 79 | 1011.1 |
| 20260505020005 | 62 | 177 | 5.2 | 9.6 | 0.00 | 0.00 | 0.00 | 78 | 1011.1 |
| 20260505015543 | 63 | 143 | 6.1 | 10.4 | 0.00 | 0.00 | 0.00 | 77 | 1011.0 |
| 20260505015004 | 63 | 159 | 6.1 | 9.6 | 0.00 | 0.00 | 0.00 | 77 | 1011.2 |
| 20260505014504 | 63 | 140 | 6.1 | 9.6 | 0.00 | 0.00 | 0.00 | 77 | 1011.2 |
| 20260505014005 | 63 | 144 | 6.1 | 9.6 | 0.00 | 0.00 | 0.00 | 77 | 1011.2 |
| 20260505013504 | 63 | 128 | 6.1 | 9.6 | 0.00 | 0.00 | 0.00 | 77 | 1011.1 |
| 20260505013004 | 63 | 156 | 5.2 | 9.6 | 0.00 | 0.00 | 0.00 | 76 | 1011.2 |
| 20260505012505 | 63 | 128 | 6.1 | 9.6 | 0.00 | 0.00 | 0.00 | 76 | 1011.1 |
| 20260505011505 | 63 | 148 | 6.1 | 9.6 | 0.00 | 0.00 | 0.00 | 75 | 1011.0 |
| 20260505011004 | 63 | 130 | 7.0 | 9.6 | 0.00 | 0.00 | 0.00 | 74 | 1011.1 |
| 20260505010504 | 63 | 137 | 5.2 | 9.6 | 0.00 | 0.00 | 0.00 | 74 | 1011.1 |
| 20260505010005 | 63 | 161 | 6.1 | 9.6 | 0.00 | 0.00 | 0.00 | 73 | 1010.9 |
| 20260505005505 | 63 | 164 | 5.2 | 9.6 | 0.00 | 0.00 | 0.00 | 72 | 1010.9 |
| 20260505004504 | 64 | 135 | 7.0 | 10.4 | 0.00 | 0.00 | 0.00 | 69 | 1010.8 |
| 20260505004004 | 64 | 156 | 6.1 | 8.7 | 0.00 | 0.00 | 0.00 | 69 | 1010.8 |
| 20260505003005 | 64 | 137 | 5.2 | 12.2 | 0.00 | 0.00 | 0.00 | 66 | 1010.7 |
| 20260505002004 | 64 | 141 | 6.1 | 9.6 | 0.00 | 0.00 | 0.00 | 66 | 1010.7 |
| 20260505001505 | 65 | 121 | 6.1 | 8.7 | 0.00 | 0.00 | 0.00 | 66 | 1010.6 |
| 20260505001004 | 65 | 133 | 5.2 | 8.7 | 0.00 | 0.00 | 0.00 | 65 | 1010.6 |
| 20260505000504 | 66 | 142 | 5.2 | 8.7 | 0.00 | 0.00 | 0.00 | 62 | 1010.5 |
| 20260505000005 | 66 | 120 | 4.3 | 9.6 | 0.00 | 0.00 | 0.00 | 59 | 1010.5 |
| 20260504235004 | 67 | 132 | 5.2 | 9.6 | 0.00 | 0.00 | 0.00 | 55 | 1010.4 |
| 20260504234500 | 68 | 150 | 6.1 | 9.6 | 0.00 | 0.00 | 0.00 | 54 | 1010.5 |
| 20260504234002 | 68 | 155 | 6.1 | 10.4 | 0.00 | 0.00 | 0.00 | 53 | 1010.4 |
| 20260504233500 | 68 | 154 | 7.8 | 15.6 | 0.00 | 0.00 | 0.00 | 52 | 1010.5 |
| 20260504233000 | 68 | 156 | 7.8 | 15.6 | 0.00 | 0.00 | 0.00 | 51 | 1010.5 |
| 20260504232504 | 69 | 162 | 8.7 | 12.2 | 0.00 | 0.00 | 0.00 | 51 | 1010.5 |
| 20260504232004 | 69 | 166 | 7.8 | 14.8 | 0.00 | 0.00 | 0.00 | 51 | 1010.3 |
| 20260504231504 | 69 | 164 | 10.4 | 14.8 | 0.00 | 0.00 | 0.00 | 51 | 1010.5 |
| 20260504231000 | 69 | 161 | 7.8 | 13.0 | 0.00 | 0.00 | 0.00 | 50 | 1010.5 |
| 20260504230005 | 70 | 138 | 7.8 | 10.4 | 0.00 | 0.00 | 0.00 | 50 | 1010.4 |
| 20260504225502 | 70 | 161 | 8.7 | 13.9 | 0.00 | 0.00 | 0.00 | 50 | 1010.5 |
| 20260504225004 | 70 | 171 | 8.7 | 13.9 | 0.00 | 0.00 | 0.00 | 50 | 1010.4 |
| 20260504223959 | 70 | 163 | 9.6 | 13.9 | 0.00 | 0.00 | 0.00 | 49 | 1010.5 |
| 20260504223500 | 71 | 169 | 11.3 | 13.9 | 0.00 | 0.00 | 0.00 | 49 | 1010.5 |
| 20260504223004 | 71 | 169 | 10.4 | 14.8 | 0.00 | 0.00 | 0.00 | 48 | 1010.5 |
| 20260504222502 | 71 | 161 | 10.4 | 13.9 | 0.00 | 0.00 | 0.00 | 48 | 1010.4 |
| 20260504222000 | 71 | 174 | 8.7 | 13.9 | 0.00 | 0.00 | 0.00 | 49 | 1010.4 |
| 20260504221504 | 71 | 170 | 7.8 | 13.0 | 0.00 | 0.00 | 0.00 | 48 | 1010.4 |
| 20260504220959 | 71 | 165 | 8.7 | 13.9 | 0.00 | 0.00 | 0.00 | 46 | 1010.4 |
| 20260504220504 | 71 | 175 | 9.6 | 16.5 | 0.00 | 0.00 | 0.00 | 45 | 1010.5 |
| 20260504220004 | 71 | 161 | 8.7 | 16.5 | 0.00 | 0.00 | 0.00 | 47 | 1010.6 |
| 20260504215004 | 71 | 174 | 8.7 | 16.5 | 0.00 | 0.00 | 0.00 | 46 | 1010.6 |
| 20260504214504 | 71 | 161 | 8.7 | 16.5 | 0.00 | 0.00 | 0.00 | 47 | 1010.5 |
| 20260504213504 | 72 | 157 | 12.2 | 19.1 | 0.00 | 0.00 | 0.00 | 40 | 1010.7 |
| 20260504213004 | 72 | 161 | 13.0 | 19.1 | 0.00 | 0.00 | 0.00 | 40 | 1010.7 |
| 20260504212505 | 72 | 155 | 10.4 | 13.9 | 0.00 | 0.00 | 0.00 | 42 | 1010.7 |
| 20260504212005 | 72 | 159 | 11.3 | 14.8 | 0.00 | 0.00 | 0.00 | 40 | 1010.7 |
| 20260504211504 | 72 | 170 | 11.3 | 14.8 | 0.00 | 0.00 | 0.00 | 42 | 1010.8 |
| 20260504211005 | 72 | 164 | 9.6 | 14.8 | 0.00 | 0.00 | 0.00 | 42 | 1010.9 |
| 20260504210504 | 71 | 141 | 7.8 | 14.8 | 0.00 | 0.00 | 0.00 | 42 | 1010.7 |
| 20260504210004 | 72 | 148 | 7.8 | 14.8 | 0.00 | 0.00 | 0.00 | 44 | 1010.7 |
| 20260504205504 | 72 | 150 | 9.6 | 14.8 | 0.00 | 0.00 | 0.00 | 43 | 1010.7 |
| 20260504205000 | 72 | 153 | 9.6 | 13.9 | 0.00 | 0.00 | 0.00 | 43 | 1010.8 |
| 20260504204505 | 73 | 126 | 8.7 | 13.9 | 0.00 | 0.00 | 0.00 | 44 | 1010.8 |
| 20260504203500 | 73 | 174 | 11.3 | 13.9 | 0.00 | 0.00 | 0.00 | 42 | 1010.8 |
| 20260504203004 | 73 | 157 | 11.3 | 15.6 | 0.00 | 0.00 | 0.00 | 43 | 1010.8 |
| 20260504202504 | 73 | 142 | 10.4 | 13.9 | 0.00 | 0.00 | 0.00 | 42 | 1010.9 |
| 20260504202004 | 73 | 177 | 11.3 | 16.5 | 0.00 | 0.00 | 0.00 | 41 | 1011.0 |
| 20260504201504 | 73 | 167 | 14.8 | 16.5 | 0.00 | 0.00 | 0.00 | 39 | 1010.9 |
| 20260504201000 | 73 | 176 | 13.0 | 17.4 | 0.00 | 0.00 | 0.00 | 39 | 1011.0 |
| 20260504200502 | 73 | 169 | 13.0 | 16.5 | 0.00 | 0.00 | 0.00 | 37 | 1011.1 |
| 20260504195504 | 74 | 154 | 11.3 | 13.9 | 0.00 | 0.00 | 0.00 | 39 | 1011.2 |
| 20260504195004 | 74 | 170 | 9.6 | 13.9 | 0.00 | 0.00 | 0.00 | 38 | 1011.3 |